Location: Ailly
(50.0793°N, 1.9944°E)
Time: 19:58:52
(UTC+00:00)

ATLAS 2AS CENTAUR R/B - Pass Details

Date: 15 January 2026
Orbit: 1050 x 1161 km, 63.7° (Epoch: 13 February)

Event Time Altitude Azimuth Distance (km) Brightness Sun altitude
Exits shadow 05:26:59 25° 323° (NW) 1,982 3.7 -21.5°
Maximum altitude 05:31:10 72° 44° (NE) 1,102 2.8 -20.8°
Drops below altitude 10° 05:37:55 10° 129° (SE) 2,866 5.8 -19.7°
Sets 05:40:33 0° 131° (SE) 3,823 6.6 -19.3°
